| time (UTC) | temp F | wind direction | speed MPH | gust MPH | rain 1hr in | rain 24hr in | rain mn in | humidity % | barometer mb |
| 20260509101247 | 44 | 240 | 0.0 | 0.0 | 0.00 | 0.00 | 0.00 | 93 | 1027.7 |
| 20260509100748 | 44 | 240 | 0.0 | 0.0 | 0.00 | 0.00 | 0.00 | 93 | 1027.6 |
| 20260509100256 | 44 | 240 | 0.0 | 0.0 | 0.00 | 0.00 | 0.00 | 92 | 1027.6 |
| 20260509095740 | 44 | 240 | 0.0 | 0.0 | 0.00 | 0.00 | 0.00 | 92 | 1027.6 |
| 20260509095239 | 44 | 240 | 0.0 | 0.0 | 0.00 | 0.00 | 0.00 | 92 | 1027.6 |
| 20260509094739 | 45 | 240 | 0.0 | 0.0 | 0.00 | 0.00 | 0.00 | 92 | 1027.6 |
| 20260509094232 | 45 | 240 | 0.0 | 0.0 | 0.00 | 0.00 | 0.00 | 91 | 1027.6 |
| 20260509093723 | 45 | 240 | 0.0 | 0.0 | 0.00 | 0.00 | 0.00 | 92 | 1027.5 |
| 20260509093222 | 45 | 240 | 0.0 | 0.0 | 0.00 | 0.00 | 0.00 | 91 | 1027.5 |
| 20260509092726 | 45 | 240 | 0.0 | 0.0 | 0.00 | 0.00 | 0.00 | 91 | 1027.4 |
| 20260509092235 | 46 | 240 | 0.0 | 0.0 | 0.00 | 0.00 | 0.00 | 91 | 1027.4 |
| 20260509091714 | 46 | 240 | 0.0 | 0.0 | 0.00 | 0.00 | 0.00 | 91 | 1027.4 |
| 20260509091220 | 46 | 240 | 0.0 | 0.0 | 0.00 | 0.00 | 0.00 | 91 | 1027.4 |
| 20260509090715 | 46 | 240 | 0.0 | 0.0 | 0.00 | 0.00 | 0.00 | 91 | 1027.3 |
| 20260509090210 | 46 | 240 | 0.0 | 0.0 | 0.00 | 0.00 | 0.00 | 90 | 1027.3 |
| 20260509085653 | 46 | 240 | 0.0 | 0.0 | 0.00 | 0.00 | 0.00 | 90 | 1027.2 |
| 20260509085142 | 46 | 240 | 0.0 | 0.0 | 0.00 | 0.00 | 0.00 | 89 | 1027.1 |
| 20260509084626 | 47 | 240 | 0.0 | 0.0 | 0.00 | 0.00 | 0.00 | 88 | 1027.1 |
| 20260509084121 | 47 | 240 | 0.0 | 0.0 | 0.00 | 0.00 | 0.00 | 89 | 1027.0 |
| 20260509083616 | 48 | 240 | 0.0 | 0.0 | 0.00 | 0.00 | 0.00 | 88 | 1027.0 |
| 20260509083107 | 48 | 240 | 0.0 | 0.0 | 0.00 | 0.00 | 0.00 | 87 | 1026.9 |
| 20260509082553 | 48 | 240 | 0.0 | 0.0 | 0.00 | 0.00 | 0.00 | 87 | 1026.8 |
| 20260509082032 | 49 | 240 | 0.0 | 0.0 | 0.00 | 0.00 | 0.00 | 86 | 1026.7 |
| 20260509081536 | 49 | 240 | 0.0 | 0.0 | 0.00 | 0.00 | 0.00 | 86 | 1026.6 |
| 20260509081021 | 49 | 240 | 0.0 | 0.0 | 0.00 | 0.00 | 0.00 | 84 | 1026.5 |
| 20260509080215 | 50 | 240 | 0.0 | 0.0 | 0.00 | 0.00 | 0.00 | 83 | 1026.5 |
| 20260509075656 | 51 | 240 | 0.0 | 0.0 | 0.00 | 0.00 | 0.00 | 81 | 1026.3 |
| 20260509075154 | 52 | 240 | 0.0 | 0.0 | 0.00 | 0.00 | 0.00 | 80 | 1026.3 |
| 20260509074636 | 53 | 240 | 0.0 | 0.0 | 0.00 | 0.00 | 0.00 | 79 | 1026.2 |
| 20260509074145 | 53 | 240 | 0.0 | 0.0 | 0.00 | 0.00 | 0.00 | 78 | 1026.1 |
| 20260509073655 | 54 | 240 | 0.0 | 0.0 | 0.00 | 0.00 | 0.00 | 76 | 1026.1 |
| 20260509072838 | 55 | 240 | 0.0 | 0.0 | 0.00 | 0.00 | 0.00 | 74 | 1026.1 |
| 20260509072343 | 56 | 240 | 0.0 | 0.0 | 0.00 | 0.00 | 0.00 | 72 | 1026.0 |
| 20260509071847 | 57 | 240 | 0.0 | 0.0 | 0.00 | 0.00 | 0.00 | 71 | 1025.9 |
| 20260509071351 | 57 | 240 | 0.0 | 0.0 | 0.00 | 0.00 | 0.00 | 71 | 1025.8 |
| 20260509070840 | 58 | 240 | 0.0 | 0.0 | 0.00 | 0.00 | 0.00 | 70 | 1025.8 |
| 20260509070347 | 58 | 240 | 0.0 | 0.0 | 0.00 | 0.00 | 0.00 | 69 | 1025.7 |
| 20260509065547 | 59 | 240 | 0.0 | 0.0 | 0.00 | 0.00 | 0.00 | 67 | 1025.7 |
| 20260509065046 | 59 | 240 | 0.0 | 0.0 | 0.00 | 0.00 | 0.00 | 66 | 1025.6 |
| 20260509064542 | 59 | 240 | 0.0 | 0.0 | 0.00 | 0.00 | 0.00 | 65 | 1025.5 |
| 20260509064051 | 59 | 240 | 0.0 | 0.0 | 0.00 | 0.00 | 0.00 | 65 | 1025.5 |
| 20260509063538 | 60 | 240 | 0.0 | 0.0 | 0.00 | 0.00 | 0.00 | 64 | 1025.5 |
| 20260509063025 | 60 | 240 | 0.0 | 0.0 | 0.00 | 0.00 | 0.00 | 65 | 1025.5 |
| 20260509062524 | 60 | 240 | 0.0 | 2.0 | 0.00 | 0.00 | 0.00 | 64 | 1025.4 |
| 20260509061723 | 60 | 238 | 0.0 | 0.0 | 0.00 | 0.00 | 0.00 | 64 | 1025.4 |
| 20260509061230 | 60 | 238 | 0.0 | 0.0 | 0.00 | 0.00 | 0.00 | 63 | 1025.4 |
| 20260509060411 | 60 | 237 | 0.0 | 0.0 | 0.00 | 0.00 | 0.00 | 63 | 1025.4 |
| 20260509055910 | 60 | 241 | 1.0 | 4.0 | 0.00 | 0.00 | 0.00 | 63 | 1025.3 |
| 20260509055106 | 60 | 246 | 1.0 | 4.0 | 0.00 | 0.00 | 0.00 | 61 | 1025.3 |
| 20260509054547 | 61 | 240 | 0.0 | 3.0 | 0.00 | 0.00 | 0.00 | 62 | 1025.3 |
| 20260509054033 | 61 | 190 | 0.0 | 3.0 | 0.00 | 0.00 | 0.00 | 63 | 1025.3 |
| 20260509053240 | 61 | 227 | 0.0 | 4.0 | 0.00 | 0.00 | 0.00 | 62 | 1025.3 |
| 20260509052729 | 61 | 221 | 0.0 | 3.0 | 0.00 | 0.00 | 0.00 | 63 | 1025.2 |
| 20260509052219 | 61 | 232 | 0.0 | 0.0 | 0.00 | 0.00 | 0.00 | 61 | 1025.2 |
| 20260509051705 | 61 | 242 | 0.0 | 0.0 | 0.00 | 0.00 | 0.00 | 60 | 1025.2 |
| 20260509051145 | 62 | 242 | 0.0 | 4.0 | 0.00 | 0.00 | 0.00 | 62 | 1025.2 |
| 20260509050632 | 62 | 242 | 0.0 | 3.0 | 0.00 | 0.00 | 0.00 | 61 | 1025.2 |
| 20260509050124 | 62 | 198 | 0.0 | 0.0 | 0.00 | 0.00 | 0.00 | 62 | 1025.2 |
| 20260509045620 | 62 | 198 | 0.0 | 0.0 | 0.00 | 0.00 | 0.00 | 61 | 1025.1 |
| 20260509044816 | 62 | 180 | 0.0 | 0.0 | 0.00 | 0.00 | 0.00 | 62 | 1025.2 |
| 20260509044024 | 62 | 180 | 0.0 | 0.0 | 0.00 | 0.00 | 0.00 | 62 | 1025.2 |
| 20260509043515 | 62 | 180 | 0.0 | 0.0 | 0.00 | 0.00 | 0.00 | 63 | 1025.2 |
| 20260509042719 | 62 | 180 | 0.0 | 3.0 | 0.00 | 0.00 | 0.00 | 62 | 1025.3 |
| 20260509041922 | 62 | 177 | 0.0 | 0.0 | 0.00 | 0.00 | 0.00 | 62 | 1025.1 |
| 20260509041412 | 62 | 176 | 0.0 | 4.0 | 0.00 | 0.00 | 0.00 | 63 | 1025.1 |
| 20260509040852 | 62 | 174 | 0.0 | 6.0 | 0.00 | 0.00 | 0.00 | 63 | 1025.0 |
| 20260509040343 | 62 | 156 | 0.0 | 0.0 | 0.00 | 0.00 | 0.00 | 64 | 1025.1 |
| 20260509035832 | 61 | 156 | 0.0 | 1.0 | 0.00 | 0.00 | 0.00 | 64 | 1025.1 |
| 20260509035327 | 61 | 98 | 0.0 | 0.0 | 0.00 | 0.00 | 0.00 | 67 | 1025.2 |
| 20260509034826 | 61 | 98 | 0.0 | 0.0 | 0.00 | 0.00 | 0.00 | 66 | 1025.2 |
| 20260509034327 | 61 | 98 | 0.0 | 0.0 | 0.00 | 0.00 | 0.00 | 68 | 1025.3 |
| 20260509033815 | 61 | 92 | 0.0 | 0.0 | 0.00 | 0.00 | 0.00 | 70 | 1025.3 |
| 20260509033317 | 60 | 92 | 0.0 | 0.0 | 0.00 | 0.00 | 0.00 | 71 | 1025.3 |
| 20260509032805 | 60 | 92 | 0.0 | 0.0 | 0.00 | 0.00 | 0.00 | 71 | 1025.4 |
| 20260509032258 | 59 | 92 | 0.0 | 0.0 | 0.00 | 0.00 | 0.00 | 72 | 1025.4 |
| 20260509031757 | 59 | 143 | 0.0 | 0.0 | 0.00 | 0.00 | 0.00 | 73 | 1025.5 |
| 20260509031255 | 59 | 140 | 0.0 | 0.0 | 0.00 | 0.00 | 0.00 | 74 | 1025.6 |
| 20260509030453 | 58 | 144 | 0.0 | 0.0 | 0.00 | 0.00 | 0.00 | 77 | 1025.7 |
| 20260509030002 | 58 | 144 | 0.0 | 0.0 | 0.00 | 0.00 | 0.00 | 76 | 1025.8 |
| 20260509025444 | 57 | 144 | 0.0 | 0.0 | 0.00 | 0.00 | 0.00 | 78 | 1025.9 |
| 20260509024941 | 57 | 144 | 0.0 | 0.0 | 0.00 | 0.00 | 0.00 | 81 | 1026.0 |
| 20260509024138 | 56 | 145 | 0.0 | 4.0 | 0.00 | 0.00 | 0.00 | 84 | 1026.2 |
| 20260509023626 | 55 | 145 | 0.0 | 0.0 | 0.00 | 0.00 | 0.00 | 86 | 1026.3 |
| 20260509023129 | 55 | 145 | 0.0 | 0.0 | 0.00 | 0.00 | 0.00 | 89 | 1026.3 |
| 20260509022616 | 54 | 145 | 0.0 | 0.0 | 0.00 | 0.00 | 0.00 | 92 | 1026.4 |
| 20260509022119 | 54 | 145 | 0.0 | 0.0 | 0.00 | 0.00 | 0.00 | 96 | 1026.5 |
| 20260509021605 | 53 | 145 | 0.0 | 0.0 | 0.00 | 0.00 | 0.00 | 97 | 1026.6 |
| 20260509020746 | 52 | 145 | 0.0 | 0.0 | 0.00 | 0.00 | 0.00 | 97 | 1026.8 |
| 20260509015929 | 51 | 145 | 0.0 | 0.0 | 0.00 | 0.00 | 0.00 | 98 | 1027.0 |
| 20260509015436 | 51 | 145 | 0.0 | 0.0 | 0.00 | 0.00 | 0.00 | 98 | 1027.2 |
| 20260509014945 | 51 | 145 | 0.0 | 0.0 | 0.00 | 0.00 | 0.00 | 98 | 1027.3 |
| 20260509014445 | 50 | 145 | 0.0 | 5.0 | 0.00 | 0.00 | 0.00 | 98 | 1027.4 |
| 20260509013928 | 50 | 145 | 0.0 | 3.0 | 0.00 | 0.00 | 0.00 | 98 | 1027.4 |
| 20260509013425 | 49 | 145 | 1.0 | 0.0 | 0.00 | 0.00 | 0.00 | 98 | 1027.5 |
| 20260509012933 | 49 | 145 | 0.0 | 5.0 | 0.00 | 0.00 | 0.00 | 97 | 1027.6 |
| 20260509012438 | 48 | 142 | 0.0 | 4.0 | 0.00 | 0.00 | 0.00 | 97 | 1027.6 |
| 20260509011947 | 48 | 163 | 0.0 | 0.0 | 0.00 | 0.00 | 0.00 | 97 | 1027.5 |
| 20260509011455 | 48 | 130 | 0.0 | 4.0 | 0.00 | 0.00 | 0.00 | 98 | 1027.5 |
| 20260509010955 | 47 | 156 | 0.0 | 0.0 | 0.00 | 0.00 | 0.00 | 97 | 1027.6 |
| 20260509010449 | 47 | 161 | 0.0 | 4.0 | 0.00 | 0.00 | 0.00 | 97 | 1027.6 |
| 20260509005646 | 47 | 156 | 0.0 | 0.0 | 0.00 | 0.00 | 0.00 | 98 | 1027.6 |
| 20260509005148 | 47 | 156 | 0.0 | 0.0 | 0.00 | 0.00 | 0.00 | 98 | 1027.6 |
| 20260509004634 | 47 | 157 | 0.0 | 0.0 | 0.00 | 0.00 | 0.00 | 97 | 1027.7 |
| 20260509004120 | 47 | 161 | 0.0 | 0.0 | 0.00 | 0.00 | 0.00 | 97 | 1027.8 |
| 20260509003600 | 47 | 163 | 0.0 | 0.0 | 0.00 | 0.00 | 0.00 | 97 | 1027.7 |
| 20260509003057 | 46 | 163 | 0.0 | 0.0 | 0.00 | 0.00 | 0.00 | 97 | 1027.7 |
| 20260509002545 | 46 | 163 | 0.0 | 0.0 | 0.00 | 0.00 | 0.00 | 97 | 1027.7 |
| 20260509002048 | 46 | 163 | 0.0 | 0.0 | 0.00 | 0.00 | 0.00 | 97 | 1027.7 |
| 20260509001554 | 46 | 163 | 0.0 | 0.0 | 0.00 | 0.00 | 0.00 | 97 | 1027.7 |
| 20260509001034 | 46 | 163 | 0.0 | 0.0 | 0.00 | 0.00 | 0.00 | 98 | 1027.7 |
| 20260509000515 | 46 | 163 | 0.0 | 0.0 | 0.00 | 0.00 | 0.00 | 98 | 1027.7 |
| 20260509000001 | 45 | 163 | 0.0 | 4.0 | 0.00 | 0.00 | 0.00 | 97 | 1027.6 |
| 20260508235449 | 45 | 171 | 0.0 | 0.0 | 0.00 | 0.00 | 0.00 | 98 | 1027.6 |
| 20260508234948 | 45 | 171 | 0.0 | 0.0 | 0.00 | 0.00 | 0.00 | 97 | 1027.5 |
| 20260508234451 | 45 | 171 | 0.0 | 0.0 | 0.00 | 0.00 | 0.00 | 97 | 1027.6 |
| 20260508233941 | 45 | 171 | 0.0 | 0.0 | 0.00 | 0.00 | 0.00 | 97 | 1027.6 |
| 20260508233132 | 44 | 171 | 0.0 | 0.0 | 0.00 | 0.00 | 0.00 | 97 | 1027.6 |
| 20260508232634 | 44 | 171 | 0.0 | 0.0 | 0.00 | 0.00 | 0.00 | 97 | 1027.6 |
| 20260508232126 | 44 | 171 | 0.0 | 0.0 | 0.00 | 0.00 | 0.00 | 97 | 1027.5 |
| 20260508231329 | 43 | 171 | 0.0 | 0.0 | 0.00 | 0.00 | 0.00 | 97 | 1027.6 |
| 20260508230838 | 43 | 171 | 0.0 | 0.0 | 0.00 | 0.00 | 0.00 | 97 | 1027.6 |
| 20260508230326 | 43 | 171 | 0.0 | 0.0 | 0.00 | 0.00 | 0.00 | 97 | 1027.6 |
| 20260508225821 | 42 | 171 | 0.0 | 0.0 | 0.00 | 0.00 | 0.00 | 97 | 1027.6 |
| 20260508225316 | 42 | 171 | 0.0 | 0.0 | 0.00 | 0.00 | 0.00 | 97 | 1027.6 |
| 20260508224826 | 42 | 171 | 0.0 | 0.0 | 0.00 | 0.00 | 0.00 | 97 | 1027.5 |
| 20260508224325 | 42 | 171 | 0.0 | 0.0 | 0.00 | 0.00 | 0.00 | 97 | 1027.5 |
| 20260508222903 | 41 | 171 | 0.0 | 0.0 | 0.00 | 0.00 | 0.00 | 97 | 1027.5 |
| 20260508222402 | 41 | 171 | 0.0 | 0.0 | 0.00 | 0.00 | 0.00 | 97 | 1027.5 |
| 20260508221907 | 40 | 171 | 0.0 | 0.0 | 0.00 | 0.00 | 0.00 | 97 | 1027.4 |
| 20260508221353 | 40 | 171 | 0.0 | 0.0 | 0.00 | 0.00 | 0.00 | 97 | 1027.2 |
| 20260508220242 | 40 | 171 | 0.0 | 0.0 | 0.00 | 0.00 | 0.00 | 97 | 1027.3 |
| 20260508215440 | 40 | 171 | 0.0 | 0.0 | 0.00 | 0.00 | 0.00 | 97 | 1027.2 |
| 20260508214921 | 40 | 171 | 0.0 | 0.0 | 0.00 | 0.00 | 0.00 | 97 | 1027.0 |
| 20260508214403 | 40 | 171 | 0.0 | 1.0 | 0.00 | 0.00 | 0.00 | 97 | 1027.0 |
| 20260508213605 | 40 | 172 | 0.0 | 0.0 | 0.00 | 0.00 | 0.00 | 97 | 1026.8 |
| 20260508213053 | 40 | 172 | 0.0 | 0.0 | 0.00 | 0.00 | 0.00 | 97 | 1026.8 |
| 20260508212544 | 40 | 172 | 0.0 | 0.0 | 0.00 | 0.00 | 0.00 | 97 | 1026.7 |
| 20260508211429 | 40 | 172 | 0.0 | 0.0 | 0.00 | 0.00 | 0.00 | 97 | 1026.6 |
| 20260508210938 | 40 | 172 | 0.0 | 0.0 | 0.00 | 0.00 | 0.00 | 97 | 1026.4 |
| 20260508210429 | 39 | 172 | 0.0 | 0.0 | 0.00 | 0.00 | 0.00 | 97 | 1026.3 |
| 20260508205921 | 39 | 172 | 0.0 | 0.0 | 0.00 | 0.00 | 0.00 | 97 | 1026.2 |
| 20260508205427 | 39 | 172 | 0.0 | 0.0 | 0.00 | 0.00 | 0.00 | 97 | 1026.2 |
| 20260508204932 | 39 | 172 | 0.0 | 0.0 | 0.00 | 0.00 | 0.00 | 97 | 1026.1 |
| 20260508204427 | 39 | 172 | 0.0 | 0.0 | 0.00 | 0.00 | 0.00 | 97 | 1026.1 |
| 20260508203921 | 39 | 172 | 0.0 | 0.0 | 0.00 | 0.00 | 0.00 | 97 | 1026.1 |
| 20260508203417 | 39 | 172 | 0.0 | 0.0 | 0.00 | 0.00 | 0.00 | 97 | 1026.0 |
| 20260508202912 | 38 | 172 | 0.0 | 0.0 | 0.00 | 0.00 | 0.00 | 97 | 1025.9 |
| 20260508202355 | 38 | 172 | 0.0 | 0.0 | 0.00 | 0.00 | 0.00 | 97 | 1025.8 |
| 20260508201836 | 38 | 172 | 0.0 | 0.0 | 0.00 | 0.00 | 0.00 | 96 | 1025.9 |
| 20260508201332 | 38 | 172 | 0.0 | 0.0 | 0.00 | 0.00 | 0.00 | 97 | 1025.8 |
| 20260508200818 | 38 | 172 | 0.0 | 0.0 | 0.00 | 0.00 | 0.00 | 97 | 1025.8 |
| 20260508200304 | 38 | 172 | 0.0 | 0.0 | 0.00 | 0.00 | 0.00 | 96 | 1025.6 |
| 20260508195752 | 37 | 172 | 0.0 | 0.0 | 0.00 | 0.00 | 0.00 | 96 | 1025.6 |
| 20260508195305 | 37 | 172 | 0.0 | 0.0 | 0.00 | 0.00 | 0.00 | 96 | 1025.6 |
| 20260508194755 | 37 | 172 | 0.0 | 0.0 | 0.00 | 0.00 | 0.00 | 96 | 1025.4 |
| 20260508194256 | 37 | 172 | 0.0 | 0.0 | 0.00 | 0.00 | 0.00 | 96 | 1025.5 |
| 20260508193803 | 37 | 172 | 0.0 | 0.0 | 0.00 | 0.00 | 0.00 | 96 | 1025.4 |
| 20260508193243 | 37 | 172 | 0.0 | 0.0 | 0.00 | 0.00 | 0.00 | 96 | 1025.3 |
| 20260508192725 | 37 | 172 | 0.0 | 0.0 | 0.00 | 0.00 | 0.00 | 96 | 1025.2 |
| 20260508192215 | 37 | 172 | 0.0 | 0.0 | 0.00 | 0.00 | 0.00 | 96 | 1025.2 |
| 20260508191721 | 37 | 172 | 0.0 | 0.0 | 0.00 | 0.00 | 0.00 | 96 | 1025.0 |
| 20260508191213 | 37 | 172 | 0.0 | 0.0 | 0.00 | 0.00 | 0.00 | 96 | 1025.0 |
| 20260508190700 | 36 | 172 | 0.0 | 0.0 | 0.00 | 0.00 | 0.00 | 96 | 1025.0 |
| 20260508190208 | 36 | 172 | 0.0 | 0.0 | 0.00 | 0.00 | 0.00 | 96 | 1025.0 |
| 20260508185718 | 36 | 172 | 0.0 | 0.0 | 0.00 | 0.00 | 0.00 | 96 | 1024.9 |
| 20260508185158 | 37 | 172 | 0.0 | 0.0 | 0.00 | 0.00 | 0.00 | 96 | 1024.8 |
| 20260508184703 | 37 | 172 | 0.0 | 0.0 | 0.00 | 0.00 | 0.00 | 96 | 1024.8 |
| 20260508184210 | 37 | 172 | 0.0 | 0.0 | 0.00 | 0.00 | 0.00 | 96 | 1024.7 |
| 20260508183716 | 37 | 172 | 0.0 | 0.0 | 0.00 | 0.00 | 0.00 | 96 | 1024.7 |
| 20260508182923 | 37 | 172 | 0.0 | 0.0 | 0.00 | 0.00 | 0.00 | 96 | 1024.7 |
| 20260508182423 | 37 | 172 | 0.0 | 0.0 | 0.00 | 0.00 | 0.00 | 96 | 1024.8 |
| 20260508181610 | 37 | 172 | 0.0 | 0.0 | 0.00 | 0.00 | 0.00 | 96 | 1024.7 |
| 20260508181058 | 36 | 172 | 0.0 | 0.0 | 0.00 | 0.00 | 0.00 | 96 | 1024.7 |
| 20260508180548 | 36 | 172 | 0.0 | 0.0 | 0.00 | 0.00 | 0.00 | 96 | 1024.6 |
| 20260508180040 | 36 | 172 | 0.0 | 0.0 | 0.00 | 0.00 | 0.00 | 96 | 1024.7 |
| 20260508175239 | 36 | 172 | 0.0 | 0.0 | 0.00 | 0.00 | 0.00 | 96 | 1024.7 |
| 20260508174727 | 36 | 172 | 0.0 | 0.0 | 0.00 | 0.00 | 0.00 | 95 | 1024.7 |
| 20260508174225 | 36 | 172 | 0.0 | 0.0 | 0.00 | 0.00 | 0.00 | 95 | 1024.7 |
| 20260508173709 | 36 | 172 | 0.0 | 0.0 | 0.00 | 0.00 | 0.00 | 95 | 1024.6 |
| 20260508173154 | 36 | 172 | 0.0 | 0.0 | 0.00 | 0.00 | 0.00 | 95 | 1024.6 |
| 20260508172638 | 36 | 172 | 0.0 | 0.0 | 0.00 | 0.00 | 0.00 | 95 | 1024.6 |
| 20260508172124 | 36 | 172 | 0.0 | 0.0 | 0.00 | 0.00 | 0.00 | 95 | 1024.5 |
| 20260508171613 | 37 | 172 | 0.0 | 0.0 | 0.00 | 0.00 | 0.00 | 95 | 1024.5 |
| 20260508171123 | 37 | 172 | 0.0 | 0.0 | 0.00 | 0.00 | 0.00 | 95 | 1024.5 |
| 20260508170624 | 37 | 172 | 0.0 | 0.0 | 0.00 | 0.00 | 0.00 | 95 | 1024.5 |
| 20260508170123 | 37 | 172 | 0.0 | 0.0 | 0.00 | 0.00 | 0.00 | 95 | 1024.6 |
| 20260508165604 | 37 | 172 | 0.0 | 0.0 | 0.00 | 0.00 | 0.00 | 95 | 1024.5 |
| 20260508165102 | 37 | 172 | 0.0 | 0.0 | 0.00 | 0.00 | 0.00 | 95 | 1024.6 |
| 20260508164256 | 38 | 172 | 0.0 | 0.0 | 0.00 | 0.00 | 0.00 | 94 | 1024.6 |
| 20260508163743 | 39 | 172 | 0.0 | 0.0 | 0.00 | 0.00 | 0.00 | 95 | 1024.5 |
| 20260508162624 | 40 | 172 | 0.0 | 0.0 | 0.00 | 0.00 | 0.00 | 95 | 1024.4 |
| 20260508162122 | 40 | 172 | 0.0 | 0.0 | 0.00 | 0.00 | 0.00 | 95 | 1024.5 |
| 20260508161625 | 40 | 172 | 0.0 | 0.0 | 0.00 | 0.00 | 0.00 | 95 | 1024.5 |
| 20260508161134 | 40 | 172 | 0.0 | 0.0 | 0.00 | 0.00 | 0.00 | 95 | 1024.5 |
| 20260508160336 | 40 | 172 | 0.0 | 0.0 | 0.00 | 0.00 | 0.00 | 95 | 1024.7 |
| 20260508155833 | 40 | 172 | 0.0 | 0.0 | 0.00 | 0.00 | 0.00 | 95 | 1024.6 |
| 20260508155341 | 40 | 172 | 0.0 | 0.0 | 0.00 | 0.00 | 0.00 | 95 | 1024.6 |
| 20260508154833 | 40 | 172 | 0.0 | 0.0 | 0.00 | 0.00 | 0.00 | 95 | 1024.6 |
| 20260508154326 | 39 | 172 | 0.0 | 0.0 | 0.00 | 0.00 | 0.00 | 95 | 1024.5 |
| 20260508153829 | 40 | 172 | 0.0 | 0.0 | 0.00 | 0.00 | 0.00 | 95 | 1024.5 |
| 20260508153318 | 39 | 172 | 0.0 | 0.0 | 0.00 | 0.00 | 0.00 | 95 | 1024.5 |
| 20260508152526 | 39 | 172 | 0.0 | 0.0 | 0.00 | 0.00 | 0.00 | 95 | 1024.7 |
| 20260508152007 | 39 | 172 | 0.0 | 0.0 | 0.00 | 0.00 | 0.00 | 95 | 1024.6 |
| 20260508151453 | 39 | 172 | 0.0 | 0.0 | 0.00 | 0.00 | 0.00 | 94 | 1024.6 |
| 20260508150938 | 39 | 172 | 0.0 | 0.0 | 0.00 | 0.00 | 0.00 | 94 | 1024.6 |
| 20260508150418 | 38 | 172 | 0.0 | 0.0 | 0.00 | 0.00 | 0.00 | 94 | 1024.5 |
| 20260508145900 | 39 | 172 | 0.0 | 0.0 | 0.00 | 0.00 | 0.00 | 94 | 1024.6 |
| 20260508145344 | 39 | 172 | 0.0 | 0.0 | 0.00 | 0.00 | 0.00 | 94 | 1024.6 |
| 20260508144848 | 40 | 172 | 0.0 | 0.0 | 0.00 | 0.00 | 0.00 | 94 | 1024.6 |
| 20260508144345 | 40 | 172 | 0.0 | 0.0 | 0.00 | 0.00 | 0.00 | 94 | 1024.5 |
| 20260508143836 | 40 | 172 | 0.0 | 0.0 | 0.00 | 0.00 | 0.00 | 94 | 1024.3 |
| 20260508143022 | 41 | 172 | 0.0 | 0.0 | 0.00 | 0.00 | 0.00 | 94 | 1024.4 |
| 20260508142505 | 41 | 172 | 0.0 | 0.0 | 0.00 | 0.00 | 0.00 | 94 | 1024.3 |
| 20260508141953 | 41 | 172 | 0.0 | 0.0 | 0.00 | 0.00 | 0.00 | 94 | 1024.4 |
| 20260508141441 | 41 | 172 | 0.0 | 0.0 | 0.00 | 0.00 | 0.00 | 94 | 1024.3 |
| 20260508140939 | 41 | 172 | 0.0 | 0.0 | 0.00 | 0.00 | 0.00 | 94 | 1024.3 |
| 20260508140437 | 41 | 172 | 0.0 | 0.0 | 0.00 | 0.00 | 0.00 | 93 | 1024.2 |
| 20260508135936 | 41 | 172 | 0.0 | 0.0 | 0.00 | 0.00 | 0.00 | 93 | 1024.1 |
| 20260508135427 | 42 | 172 | 0.0 | 0.0 | 0.00 | 0.00 | 0.00 | 92 | 1024.1 |
| 20260508134908 | 42 | 172 | 0.0 | 0.0 | 0.00 | 0.00 | 0.00 | 92 | 1024.1 |
| 20260508134413 | 43 | 172 | 0.0 | 0.0 | 0.00 | 0.00 | 0.00 | 92 | 1024.1 |
| 20260508133859 | 43 | 172 | 0.0 | 1.0 | 0.00 | 0.00 | 0.00 | 92 | 1024.0 |
| 20260508133345 | 43 | 171 | 0.0 | 0.0 | 0.00 | 0.00 | 0.00 | 92 | 1023.9 |
| 20260508132850 | 44 | 171 | 0.0 | 0.0 | 0.00 | 0.00 | 0.00 | 92 | 1024.0 |
| 20260508132352 | 44 | 242 | 0.0 | 0.0 | 0.00 | 0.00 | 0.00 | 91 | 1023.9 |
| 20260508131840 | 44 | 242 | 0.0 | 0.0 | 0.00 | 0.00 | 0.00 | 91 | 1023.9 |
| 20260508131335 | 45 | 242 | 0.0 | 0.0 | 0.00 | 0.00 | 0.00 | 92 | 1023.9 |
| 20260508130839 | 45 | 242 | 0.0 | 0.0 | 0.00 | 0.00 | 0.00 | 91 | 1023.9 |
| 20260508130343 | 46 | 242 | 0.0 | 2.0 | 0.00 | 0.00 | 0.00 | 90 | 1023.8 |
| 20260508125845 | 46 | 242 | 0.0 | 0.0 | 0.00 | 0.00 | 0.00 | 90 | 1023.8 |
| 20260508125347 | 47 | 242 | 0.0 | 0.0 | 0.00 | 0.00 | 0.00 | 90 | 1023.9 |
| 20260508124531 | 48 | 242 | 0.0 | 0.0 | 0.00 | 0.00 | 0.00 | 90 | 1023.9 |
| 20260508124032 | 48 | 242 | 0.0 | 0.0 | 0.00 | 0.00 | 0.00 | 91 | 1024.0 |
| 20260508123512 | 48 | 242 | 0.0 | 0.0 | 0.00 | 0.00 | 0.00 | 91 | 1024.0 |
| 20260508122956 | 48 | 242 | 0.0 | 0.0 | 0.00 | 0.00 | 0.00 | 91 | 1024.0 |
| 20260508122455 | 48 | 242 | 0.0 | 0.0 | 0.00 | 0.00 | 0.00 | 91 | 1024.1 |
| 20260508121651 | 48 | 242 | 0.0 | 0.0 | 0.00 | 0.00 | 0.00 | 90 | 1024.1 |
| 20260508121143 | 48 | 242 | 0.0 | 0.0 | 0.00 | 0.00 | 0.00 | 90 | 1024.1 |
| 20260508120632 | 48 | 242 | 0.0 | 0.0 | 0.00 | 0.00 | 0.00 | 89 | 1024.2 |
| 20260508120122 | 48 | 242 | 0.0 | 0.0 | 0.00 | 0.00 | 0.00 | 89 | 1024.3 |
| 20260508115605 | 49 | 242 | 0.0 | 0.0 | 0.00 | 0.00 | 0.00 | 88 | 1024.2 |
| 20260508114756 | 49 | 242 | 0.0 | 0.0 | 0.00 | 0.00 | 0.00 | 87 | 1024.3 |
| 20260508114243 | 50 | 242 | 0.0 | 2.0 | 0.00 | 0.00 | 0.00 | 87 | 1024.2 |
| 20260508113744 | 50 | 242 | 0.0 | 0.0 | 0.00 | 0.00 | 0.00 | 87 | 1024.3 |
| 20260508113240 | 50 | 242 | 0.0 | 0.0 | 0.00 | 0.00 | 0.00 | 88 | 1024.3 |
| 20260508112737 | 50 | 236 | 0.0 | 1.0 | 0.00 | 0.00 | 0.00 | 88 | 1024.3 |
| 20260508111936 | 50 | 204 | 0.0 | 0.0 | 0.00 | 0.00 | 0.00 | 88 | 1024.2 |
| 20260508111429 | 50 | 260 | 1.0 | 10.0 | 0.00 | 0.00 | 0.00 | 88 | 1024.1 |
| 20260508110621 | 51 | 219 | 1.0 | 8.0 | 0.00 | 0.00 | 0.00 | 87 | 1024.0 |
| 20260508110129 | 51 | 232 | 2.0 | 10.0 | 0.00 | 0.00 | 0.00 | 87 | 1023.9 |
| 20260508105614 | 51 | 225 | 2.0 | 6.0 | 0.00 | 0.00 | 0.00 | 87 | 1024.0 |
| 20260508105109 | 51 | 268 | 2.0 | 11.0 | 0.00 | 0.00 | 0.00 | 88 | 1024.0 |
| 20260508104549 | 51 | 249 | 1.0 | 11.0 | 0.00 | 0.00 | 0.00 | 88 | 1023.9 |
| 20260508104057 | 51 | 257 | 2.0 | 11.0 | 0.00 | 0.00 | 0.00 | 88 | 1023.9 |
| 20260508103601 | 51 | 248 | 2.0 | 11.0 | 0.00 | 0.00 | 0.00 | 88 | 1023.9 |
| 20260508103052 | 50 | 235 | 2.0 | 9.0 | 0.00 | 0.00 | 0.00 | 88 | 1023.9 |
| 20260508101947 | 50 | 233 | 2.0 | 8.0 | 0.00 | 0.00 | 0.00 | 88 | 1023.8 |